Weather History for MMTP - December, 2012

Change the Weather History Date:

Sunday, December 9, 2012

  Actual Average Record
Temperature  
Mean Temperature 78 °F -  
Max Temperature 86 °F 86 °F 91 °F (1998)
Min Temperature 69 °F 72 °F 68 °F (1996)
Cooling Degree Days 12    
Growing Degree Days 28 (Base 50)    
Moisture  
Dew Point 72 °F    
Average Humidity 80    
Maximum Humidity 94    
Minimum Humidity 62    
Precipitation  
Precipitation 0.00 in - - ()
Sea Level Pressure  
Sea Level Pressure 29.89 in    
Wind  
Wind Speed 2 mph ()    
Max Wind Speed 14 mph    
Max Gust Speed -    
Visibility 10.0 miles    
Events      
Averages and records for this station are not official NWS values.
T = Trace of Precipitation, MM = Missing Value Source: Averaged Metar Reports

Daily Weather History Graph

Daily Weather History Graph

Search for Another Location

Airport or City:

Trip Planner

Search our weather history database for the weather conditions in past years. The results will help you decide how hot, cold, wet, or windy it might be!

Date:

Astronomy

Dec. 09, 2012 Rise Set
Actual Time 6:23 AM CST 5:40 PM CST
Civil Twilight 6:00 AM CST 6:03 PM CST
Nautical Twilight 5:33 AM CST 6:30 PM CST
Astronomical Twilight 5:07 AM CST 6:56 PM CST
Moon 2:25 AM CST (12/9) 2:23 PM CST (12/9)
Length of Visible Light 12h 02m
Length of Day
11h 16m
Waning Crescent, 18% of the Moon is Illuminated
Dec 9
Waning Crescent
Dec 13
New
Dec 19
First Quarter
Dec 28
Full
Jan 4
Last Quarter

Hourly Weather History & Observations

Time (CST) Temp. Heat Index Dew Point Humidity Pressure Visibility Wind Dir Wind Speed Gust Speed Precip Events Conditions
12:40 AM 75.2 °F - 71.6 °F 89% 29.90 in 10.0 mi Calm Calm - N/A   Scattered Clouds
1:40 AM 75.2 °F - 71.6 °F 89% 29.90 in 10.0 mi Calm Calm - N/A   Scattered Clouds
2:40 AM 75.2 °F - 71.6 °F 89% 29.80 in 10.0 mi Calm Calm - N/A   Scattered Clouds
3:40 AM 75.2 °F - 71.6 °F 89% 29.89 in 10.0 mi Calm Calm - N/A   Scattered Clouds
4:40 AM 75.2 °F - 71.6 °F 89% 29.89 in 10.0 mi Calm Calm - N/A   Scattered Clouds
5:40 AM 75.2 °F - 71.6 °F 89% 29.78 in 10.0 mi Calm Calm - N/A   Scattered Clouds
6:40 AM 69.8 °F - 64.4 °F 83% 29.93 in 10.0 mi Calm Calm - N/A   Clear
7:40 AM 73.4 °F - 66.2 °F 78% 29.94 in 10.0 mi Calm Calm - N/A   Clear
8:48 AM 78.8 °F - 69.8 °F 74% 29.94 in 10.0 mi Calm Calm - N/A   Clear
9:40 AM 82.4 °F 88.2 °F 73.4 °F 74% 29.98 in 10.0 mi Calm Calm - N/A   Sand
10:40 AM 86.0 °F 93.4 °F 73.4 °F 66% 29.98 in 10.0 mi WSW 8.1 mph - N/A   Scattered Clouds
11:40 AM 86.0 °F 91.8 °F 71.6 °F 62% 29.91 in 10.0 mi WSW 9.2 mph - N/A   Scattered Clouds
12:40 PM - - - N/A% 29.94 in 10.0 mi WSW 11.5 mph - N/A   Scattered Clouds
1:40 PM 86.0 °F 95.1 °F 75.2 °F 70% 29.90 in 10.0 mi WSW 11.5 mph - N/A   Scattered Clouds
2:55 PM 84.2 °F 90.9 °F 73.4 °F 70% 29.86 in 10.0 mi WSW 13.8 mph - N/A   Scattered Clouds
3:40 PM 84.2 °F 90.9 °F 73.4 °F 70% 29.85 in 10.0 mi WSW 11.5 mph - N/A   Scattered Clouds
4:40 PM 84.2 °F 90.9 °F 73.4 °F 70% 29.85 in 10.0 mi WSW 9.2 mph - N/A   Scattered Clouds
5:47 PM 82.4 °F 88.2 °F 73.4 °F 74% 29.85 in 10.0 mi WSW 6.9 mph - N/A   Scattered Clouds
6:40 PM 80.6 °F 85.4 °F 73.4 °F 79% 29.88 in 10.0 mi Calm Calm - N/A   Partly Cloudy
7:40 PM 78.8 °F - 73.4 °F 83% 29.90 in 10.0 mi Calm Calm - N/A   Partly Cloudy
8:42 PM 77.0 °F - 73.4 °F 89% 29.88 in 10.0 mi Calm Calm - N/A   Partly Cloudy
9:40 PM 77.0 °F - 73.4 °F 89% 29.94 in 10.0 mi Calm Calm - N/A   Clear
10:40 PM 75.2 °F - 73.4 °F 94% 29.93 in 10.0 mi Calm Calm - N/A   Clear
11:40 PM 77.0 °F - 71.6 °F 83% 29.82 in 10.0 mi Calm Calm - N/A   Clear